Location: Caltech
(34.1382°N, 118.1253°W)
Time: 17:49:56
(UTC-07:00)

Tiros 1 despin weight - All Passes

Search period start: 20 August 2017 00:00
Search period end: 30 August 2017 00:00
Orbit: 595 x 644 km, 48.2° (Epoch: 20 August)

Date Brightness Start Highest point End Pass type
(mag) Time Alt. Az. Time Alt. Az. Time Alt. Az.
20 Aug - 01:26:07 10° NW 01:30:43 90° NE 01:35:21 10° SE night (unlit)
20 Aug - 03:09:37 10° W 03:11:48 13° SW 03:14:00 10° SSW night (unlit)
20 Aug - 17:12:28 10° SSW 17:16:20 30° SE 17:20:13 10° ENE daylight
20 Aug - 18:53:35 10° WSW 18:57:47 42° NNW 19:02:02 10° NE daylight
20 Aug - 20:37:34 10° NW 20:40:16 16° NNW 20:43:00 10° NNE visible
20 Aug - 22:20:47 10° NNW 22:23:20 15° N 22:25:53 10° NE visible
21 Aug - 00:01:48 10° NW 00:05:57 34° NNE 00:10:10 10° E visible
21 Aug - 01:43:16 10° WNW 01:47:36 43° SW 01:52:00 10° SSE night (unlit)
21 Aug - 17:28:47 10° SW 17:33:09 67° SE 17:37:33 10° ENE daylight
21 Aug - 19:11:19 10° W 19:15:01 25° NNW 19:18:45 10° NNE daylight
21 Aug - 20:55:36 10° NNW 20:57:49 13° N 21:00:04 10° NNE visible
21 Aug - 22:37:38 10° NNW 22:40:49 18° NNE 22:44:02 10° ENE visible
22 Aug - 00:18:34 10° NW 00:23:05 62° NE 00:27:39 10° ESE visible
22 Aug - 02:00:58 10° W 02:04:22 20° SW 02:07:46 10° S night (unlit)
22 Aug - 16:05:40 10° S 16:08:53 20° SE 16:12:06 10° E daylight
22 Aug - 17:45:46 10° WSW 17:50:07 59° NW 17:54:31 10° NE daylight
22 Aug - 19:29:21 10° WNW 19:32:24 18° NNW 19:35:28 10° NNE daylight
22 Aug - 21:13:09 10° NNW 21:15:24 13° N 21:17:39 10° NE visible
22 Aug - 22:54:21 10° NNW 22:58:12 26° NNE 23:02:04 10° E visible
23 Aug - 00:35:32 10° WNW 00:40:03 66° SW 00:44:37 10° SE night (unlit)
23 Aug - 16:21:27 10° SSW 16:25:37 43° SE 16:29:49 10° ENE daylight
23 Aug - 18:03:15 10° W 18:07:15 33° NNW 18:11:17 10° NE daylight
23 Aug - 19:47:29 10° NW 19:49:54 14° N 19:52:19 10° NNE visible
23 Aug - 21:30:10 10° NNW 21:32:57 16° NNE 21:35:44 10° NE visible
23 Aug - 23:11:05 10° NW 23:15:24 44° NNE 23:19:47 10° ESE visible
24 Aug - 00:52:52 10° WNW 00:56:53 31° SW 01:00:55 10° SSE night (unlit)
24 Aug - 14:59:32 10° SSE 15:01:28 13° SE 15:03:23 10° ESE daylight
24 Aug - 16:38:06 10° SW 16:42:30 87° NW 16:46:57 10° NE daylight
24 Aug - 18:21:09 10° WNW 18:24:33 21° NNW 18:27:59 10° NNE daylight
24 Aug - 20:05:20 10° NNW 20:07:28 13° N 20:09:35 10° NNE visible
24 Aug - 21:46:55 10° NNW 21:50:23 21° NNE 21:53:52 10° ENE visible
24 Aug - 23:27:55 10° NW 23:32:28 84° NE 23:37:03 10° SE visible
25 Aug - 01:11:09 10° W 01:13:34 14° SW 01:16:00 10° SSW night (unlit)
25 Aug - 15:14:22 10° SSW 15:18:08 28° SE 15:21:55 10° ENE daylight
25 Aug - 16:55:19 10° WSW 16:59:32 44° NNW 17:03:48 10° NE daylight
25 Aug - 18:39:16 10° NW 18:41:59 16° NNW 18:44:43 10° NNE daylight
25 Aug - 20:22:38 10° NNW 20:25:01 14° N 20:27:27 10° NE visible
25 Aug - 22:03:37 10° NW 22:07:40 32° NNE 22:11:46 10° E visible
25 Aug - 23:45:02 10° WNW 23:49:22 46° SW 23:53:45 10° SSE visible
26 Aug - 15:30:36 10° SW 15:34:56 62° SE 15:39:18 10° ENE daylight
26 Aug - 17:13:00 10° W 17:16:45 26° NNW 17:20:31 10° NNE daylight
26 Aug - 18:57:21 10° NW 18:59:31 13° N 19:01:43 10° NNE daylight
26 Aug - 20:39:29 10° NNW 20:42:32 18° NNE 20:45:36 10° ENE visible
26 Aug - 22:20:23 10° NW 22:24:50 58° NE 22:29:18 10° ESE visible
27 Aug - 00:02:39 10° W 00:06:08 22° SW 00:09:38 10° S night (unlit)
27 Aug - 14:07:39 10° S 14:10:41 18° SE 14:13:44 10° E daylight
27 Aug - 15:47:31 10° WSW 15:51:54 64° NW 15:56:17 10° NE daylight
27 Aug - 17:31:02 10° WNW 17:34:07 18° NNW 17:37:13 10° NNE daylight
27 Aug - 19:14:58 10° NNW 19:17:06 13° N 19:19:15 10° NNE daylight
27 Aug - 20:56:12 10° NNW 20:59:54 25° NNE 21:03:39 10° E visible
27 Aug - 22:37:19 10° NW 22:41:48 71° SW 22:46:20 10° SE visible
28 Aug - 14:23:17 10° SSW 14:27:25 40° SE 14:31:33 10° ENE daylight
28 Aug - 16:04:57 10° W 16:09:01 34° NNW 16:13:04 10° NE daylight
28 Aug - 17:49:10 10° NW 17:51:36 14° N 17:54:02 10° NNE daylight
28 Aug - 19:32:00 10° NNW 19:34:38 15° NNE 19:37:18 10° NE daylight
28 Aug - 21:12:54 10° NW 21:17:08 41° NNE 21:21:25 10° ESE visible
28 Aug - 22:54:36 10° WNW 22:58:38 33° SW 23:02:43 10° SSE visible
29 Aug - 13:01:45 10° SSE 13:03:16 12° SE 13:04:46 10° ESE daylight
29 Aug - 14:39:52 10° SW 14:44:17 87° SE 14:48:43 10° NE daylight
29 Aug - 16:22:49 10° WNW 16:26:17 22° NNW 16:29:45 10° NNE daylight
29 Aug - 18:07:06 10° NNW 18:09:09 13° N 18:11:14 10° NNE daylight
29 Aug - 19:48:46 10° NNW 19:52:05 20° NNE 19:55:26 10° ENE visible
29 Aug - 21:29:43 10° NW 21:34:12 78° NE 21:38:44 10° SE visible
29 Aug - 23:12:43 10° W 23:15:21 15° SW 23:17:58 10° SSW visible
